Location: Colonia Mina de C?rbuni
(46.1667°N, 22.7167°E)
Time: 06:37:17
(UTC+00:00)

Courier 1B - Pass Details

Date: 29 April 2024
Orbit: 962 x 1208 km, 28.3° (Epoch: 26 May)

Event Time Altitude Azimuth Distance (km) Brightness Sun altitude
Rises 21:30:44 0° 232° (SW) 4,099 - -27.7°
Reaches altitude 10° 21:34:32 10° 215° (SW) 3,139 - -27.9°
Maximum altitude 21:39:42 19° 174° (S) 2,501 - -28.1°
Drops below altitude 10° 21:44:49 10° 132° (SE) 3,102 - -28.3°
Sets 21:48:31 0° 116° (ESE) 4,034 - -28.4°
